Location: Buch am Rannenberg
(48.6989°N, 10.6399°E)
Time: 01:31:56
(UTC+00:00)

Cosmos 2285 Rocket - Pass Details

Date: 07 June 2020
Orbit: 971 x 999 km, 74.0° (Epoch: 11 July)

Event Time Altitude Azimuth Distance (km) Brightness Sun altitude
Rises 00:19:38 0° 333° (NNW) 3,705 7.8 -17.1°
Reaches altitude 10° 00:22:15 10° 329° (NNW) 2,749 7.0 -17.0°
Maximum altitude 00:28:23 52° 255° (WSW) 1,203 4.3 -16.7°
Enters shadow 00:31:53 25° 191° (S) 1,855 4.9 -16.6°
